Regional Weather Roundup
Issued by NWS Sioux Falls, SD

Home | Current Version | Previous Version | Graphics & Text | Print | Product List | Glossary Off
Versions: 1 2 3 4 5 6 7 8 9 10 11 12 13 14 15 16 17 18 19 20 21 22 23 24 25 26 27 28 29 30 31 32 33 34 35 36 37 38 39 40 41 42 43 44 45 46 47 48 49 50

000
ASUS43 KFSD 260010
RWRFSD

WEATHER ROUNDUP FOR SE SOUTH DAKOTA/SW MINNESOTA/NW IOWA
NATIONAL WEATHER SERVICE SIOUX FALLS SD
700 PM CDT SAT APR 25 2015

NOTE: "FAIR" INDICATES FEW OR NO CLOUDS BELOW 12,000 FEET WITH NO
SIGNIFICANT WEATHER AND OR OBSTRUCTIONS TO VISIBILITY.


SDZ038>040-050-052>070-260100-
SOUTHEAST SOUTH DAKOTA

CITY           SKY/WX    TMP DP  RH WIND       PRES   REMARKS
BROOKINGS      CLOUDY    55  41  58 E9        29.86R
CHAMBERLAIN    CLOUDY    58  46  63 SE12      29.80S
6HR MIN TEMP:  53; 6HR MAX TEMP:  58;

HURON          CLOUDY    59  44  57 E12       29.83R
6HR MIN TEMP:  54; 6HR MAX TEMP:  63;

MADISON        CLOUDY    55  43  62 E14       29.84R
MITCHELL       CLOUDY    59  45  59 E12       29.83R
6HR MIN TEMP:  52; 6HR MAX TEMP:  61;

SIOUX FALLS    PTSUNNY   57  41  55 E12       29.83R
6HR MIN TEMP:  57; 6HR MAX TEMP:  61;

WINNER         CLOUDY    59  45  59 SE14      29.79R
YANKTON        PTSUNNY   61  39  44 E13       29.80R
$$

MNZ071-072-080-081-089-090-097-098-260100-
SOUTHWEST MINNESOTA

CITY           SKY/WX    TMP DP  RH WIND       PRES   REMARKS
FAIRMONT       CLOUDY    52  36  54 E14       29.86R
JACKSON        CLOUDY    52  37  58 E17       29.86R
LUVERNE        MOSUNNY   55  39  54 E13G18    29.85R
MARSHALL       PTSUNNY   55  37  50 SE10      29.86R
6HR MIN TEMP:  52; 6HR MAX TEMP:  61;

MONTEVIDEO     SUNNY     59  39  47 E13G18    29.88R
REDWOOD FALLS  CLOUDY    58  37  45 E8        29.85R
TRACY          MOSUNNY   56  40  54 E13       29.87R
WORTHINGTON    CLOUDY    52  37  58 E16       29.86R
$$

IAZ001>003-012>014-020>022-031-032-NEZ013-014-SDZ071-260100-
NORTHWEST IOWA

CITY           SKY/WX    TMP DP  RH WIND       PRES   REMARKS
CHEROKEE       CLOUDY    54  42  63 E13G21    29.83R
DENISON        CLOUDY    52  46  82 E12G21    29.79R
ESTHERVILLE    CLOUDY    51  40  65 E18       29.85R
LE MARS        CLOUDY    57  41  54 E15       29.84R
ORANGE CITY    CLOUDY    54  43  66 E10G16    29.84R
SHELDON        CLOUDY    54  41  62 E16       29.83R
SIOUX CITY     PTSUNNY   57  41  55 E13       29.82R
6HR MIN TEMP:  54; 6HR MAX TEMP:  61;

SPENCER        CLOUDY    53  42  66 E16       29.85R
6HR MIN TEMP:  53; 6HR MAX TEMP:  58;

STORM LAKE     CLOUDY    52  41  66 E18       29.83R
$$

ABBREVIATIONS USED IN REMARKS
   TC - TEMPERATURE IN CELSIUS
  WCI - WIND CHILL INDEX
   HX - HEAT INDEX
  VSB - VISIBILITY



USA.gov is the U.S. government's official web portal to all federal, state and local government web resources and services.